Regional Weather Roundup
Issued by NWS

Home | Current Version | Previous Version | Graphics & Text | Print | Product List | Glossary Off
Versions: 1 2 3 4 5 6 7 8 9 10 11 12 13 14 15 16 17 18 19 20 21 22 23 24 25 26 27 28 29 30 31 32 33 34 35 36 37 38 39 40 41 42 43 44 45 46 47 48 49 50

000
ASUS43 KLSX 272007
RWRMO

WEATHER SUMMARY FOR MISSOURI
NATIONAL WEATHER SERVICE SPRINGFIELD MO
300 PM CDT THU AUG 27 2015

NOTE: "FAIR" INDICATES FEW OR NO CLOUDS BELOW 12,000 FEET WITH NO
       SIGNIFICANT WEATHER AND/OR OBSTRUCTIONS TO VISIBILITY.
       CURRENT SKY AND/OR WEATHER CONDITIONS ARE NOT AVAILABLE FOR
       CHILLICOTHE AND FARMINGTON.

MOZ001>031-035>038-043-044-053-054-272100-
...NORTHERN AND WESTERN MISSOURI...

CITY           SKY/WX    TMP DP  RH WIND       PRES   REMARKS
KANSAS CTY INT CLOUDY    72  64  76 S15G24    30.07F
KANSAS C DTWN  CLOUDY    70  64  81 VRB6      30.08F
LEE`S SUMMIT   CLOUDY    67  62  84 S8        30.11F
ST JOSEPH      PTSUNNY   75  66  73 S13       30.02F
CHILLICOTHE      N/A     72  62  71 VRB3      30.08R
KIRKSVILLE     CLOUDY    73  59  61 SE14      30.09F

$$
MOZ066>068-077>081-088>096-101>105-272100-
...SOUTHWEST MISSOURI...

CITY           SKY/WX    TMP DP  RH WIND       PRES   REMARKS
SPRINGFIELD    MOSUNNY   77  63  61 S9        30.11F
JOPLIN         CLOUDY    78  66  66 CALM      30.10S

$$
MOZ032>034-039>042-045>050-055>058-069>072-272100-
...CENTRAL MISSOURI...

CITY           SKY/WX    TMP DP  RH WIND       PRES   REMARKS
COLUMBIA       CLOUDY    76  59  55 CALM      30.15R
JEFFERSON CITY PTSUNNY   77  59  53 NE5       30.13S
ROLLA          PTSUNNY   78  57  48 SE6       30.12F
SEDALIA        CLOUDY    77  61  57 NE3       30.15R
WHITEMAN AFB   CLOUDY    71  61  70 NW6       30.14R
WARRENSBURG    CLOUDY    68  59  73 CALM      30.13F
OSAGE BEACH    CLOUDY    79  57  47 CALM      30.13R

$$
MOZ051-052-059>065-272100-
...EAST CENTRAL MISSOURI...

CITY           SKY/WX    TMP DP  RH WIND       PRES   REMARKS
ST LOUIS INTL  CLOUDY    79  56  45 NW7       30.13F
SPIRIT OF STL  MOSUNNY   78  59  51 CALM      30.12F
ST CHARLES     MOSUNNY   76  60  57 NW7       30.13F

$$
MOZ072>076-082>087-097>100-106>115-272100-
...SOUTH CENTRAL AND SOUTHEAST MISSOURI...

CITY           SKY/WX    TMP DP  RH WIND       PRES   REMARKS
CAPE GIRARDEAU MOSUNNY   81  58  45 NE6       30.11F
FARMINGTON     SUNNY     79  55  44 CALM      30.15F
POPLAR BLUFF   MOSUNNY   81  57  43 NE5       30.10F
WEST PLAINS    PTSUNNY   77  55  46 SE3       30.16F

$$



USA.gov is the U.S. government's official web portal to all federal, state and local government web resources and services.